#timestamp,LO_Frequency,Hit,StdDev 
1542452415.6,286047004.9,N
1542452435.5,286047005.9,N
1542452455.3,286047003.4,N
1542452475.2,286047007.2,N
1542452495.9,286047003.2,N
1542452515.7,286047001.4,N
1542452535.6,286047004.1,N
1542452555.4,286046999.7,N
1542452575.3,286047001.2,N
1542452595.1,286047002.4,N
1542452596.0,286047002.4,N
1542452615.8,286047002.2,N
1542452635.7,286047004.2,N
1542452655.5,286047005.0,N
1542452675.3,286047012.6,N
1542452695.2,286047013.6,N
1542452715.0,286047010.8,N
1542452715.9,286047010.8,N
1542452735.8,286047006.6,N
1542452755.6,286047011.7,N
1542452775.4,286047014.1,N
1542452795.3,286047018.7,Y
1542452815.1,286047002.9,P
1542452835.9,286047001.2,N
1542452855.7,286046995.8,N
1542452875.5,286046994.4,N
1542452895.4,286046994.0,N
1542452915.2,286046990.3,N
1542452935.0,286046987.5,N
1542452935.9,286046987.5,N
1542452955.8,286046984.5,N
1542452975.6,286046984.8,N
1542452995.4,286046982.1,N
1542453015.3,286046981.8,N
1542453035.1,286046978.9,N
1542453055.9,286046981.9,N
1542453075.7,286046981.4,N
1542453095.5,286046985.0,N
1542453115.4,286046987.2,N
1542453135.2,286046988.8,N
1542453155.0,286046985.9,N
1542453156.0,286046985.9,N
1542453175.8,286046985.5,N
1542453195.6,286046985.5,N
1542453215.5,286046985.7,N
1542453235.3,286046989.8,N
1542453255.1,286046989.4,N
1542453275.9,286046994.8,N
1542453295.7,286046991.3,N
1542453315.5,286046991.3,N
1542453335.4,286046992.9,N
1542453355.2,286046992.8,N
1542453375.1,286046994.2,N
1542453376.0,286046994.2,N
1542453395.8,286046993.7,N
1542453415.6,286046996.5,N
1542453435.5,286046997.4,N
1542453455.3,286046997.1,N
1542453475.1,286046998.0,N
1542453495.9,286046997.6,N
1542453515.7,286046995.3,N
1542453535.6,286046995.6,N
1542453555.4,286046998.4,N
1542453575.2,286046998.2,N
1542453595.1,286046996.6,N
1542453596.0,286046996.6,N
1542453615.8,286046997.2,N
1542453635.6,286046999.2,N
1542453655.5,286046999.0,N
1542453675.3,286047000.4,N
1542453695.2,286047000.1,N
1542453715.9,286046999.9,N
1542453735.7,286047000.2,N
1542453755.6,286047000.4,N
1542453775.4,286047000.4,N
1542453795.2,286047001.2,N
1542453815.1,286046996.9,N
1542453816.0,286046996.9,N
1542453835.8,286046995.7,N
1542453855.7,286046997.1,N
1542453875.5,286046999.6,N
1542453895.3,286046997.5,N
1542453915.2,286047000.0,N
1542453935.9,286047000.8,N
1542453955.7,286047002.3,N
1542453975.6,286047002.0,N
1542453995.4,286047002.1,N
1542454015.3,286047005.6,N
1542454035.1,286047009.4,Y
1542454036.0,286047009.4,P
1542454055.8,286047009.6,N
1542454075.7,286047011.8,N
1542454095.5,286047011.2,N
1542454115.3,286047013.6,N
1542454135.2,286047013.2,N
1542454155.0,286047013.2,N
1542454155.9,286047013.2,N
1542454175.8,286047013.0,Y
1542454195.6,286047004.4,P
1542454215.4,286047003.3,N
1542454235.3,286047006.0,N
1542454255.1,286047004.0,N
1542454275.9,286047007.8,Y
1542454295.7,286047002.8,P
1542454315.5,286046999.4,N
1542454335.4,286046994.5,N
1542454355.2,286046990.7,N
1542454375.0,286046989.4,N
1542454375.9,286046989.4,N
1542454395.8,286046987.3,N
1542454415.6,286046989.6,N
1542454435.5,286046987.2,N
1542454455.3,286046990.3,N
1542454475.1,286046992.4,N
1542454495.9,286046992.1,N
1542454515.7,286046994.2,N
1542454535.5,286046993.3,N
1542454555.4,286046993.7,N
1542454575.2,286046992.2,N
1542454595.1,286046996.2,N
1542454596.0,286046996.2,N
1542454615.8,286046994.9,N
1542454635.6,286046992.6,N
1542454655.5,286046988.5,N
1542454675.3,286046989.8,N
1542454695.1,286046987.3,N
1542454715.9,286046983.9,Y
1542454735.7,286046992.4,P
1542454755.6,286046988.1,P
1542454775.4,286046988.4,P
1542454795.2,286046984.2,Y
1542454815.1,286046993.4,P
1542454816.0,286046993.4,P
1542454835.8,286046994.3,P
1542454855.6,286046993.7,Y
1542454875.5,286046998.1,P
1542454895.3,286047001.0,N
1542454915.2,286047000.9,N
1542454935.9,286047003.2,N
1542454955.7,286047013.9,Y
1542454975.6,286047008.7,P
1542454995.4,286047004.8,N
1542455015.2,286047004.8,N
1542455035.1,286047005.0,N
1542455036.0,286047005.0,N
1542455055.8,286047007.5,N
1542455075.7,286047008.9,Y
1542455095.5,286047005.0,P
1542455115.3,286047004.6,P
1542455135.2,286047007.1,P
1542455155.0,286047007.6,Y
1542455155.9,286047007.6,P
1542455175.8,286047004.0,P
1542455195.6,286046999.8,N
1542455215.4,286047004.4,N
1542455235.3,286047003.6,N
1542455255.1,286047004.0,N
1542455275.8,286047004.0,N
1542455295.7,286047005.1,N
1542455315.5,286047007.4,Y
1542455335.4,286046999.7,P
1542455355.2,286047002.3,N
1542455375.0,286046999.7,N
1542455375.9,286046999.7,N
1542455395.8,286046999.4,N
1542455415.6,286046997.0,N
1542455435.4,286046994.0,N
1542455455.3,286046990.9,Y
1542455475.1,286046991.4,P
1542455495.9,286046988.7,N
1542455515.7,286046989.4,N
1542455535.5,286046991.4,N
1542455555.4,286046992.3,N
1542455575.2,286046989.8,N
1542455595.0,286046989.2,Y
1542455595.9,286046989.2,P
1542455615.8,286046995.9,P
1542455635.6,286046993.5,N
1542455655.5,286046994.0,N
1542455675.3,286046994.7,N
1542455695.1,286046994.5,N
1542455715.9,286046996.0,N
1542455735.7,286046997.7,N
1542455755.5,286046997.7,N
1542455775.4,286046997.7,N
1542455795.2,286046998.8,N
1542455815.1,286046998.0,N
1542455816.0,286046998.0,N
1542455835.8,286046997.8,N
1542455855.6,286046997.8,N
1542455875.5,286046999.1,N
1542455895.3,286046998.6,N
1542455915.1,286046999.9,N
1542455935.9,286047004.0,N
1542455955.7,286047001.4,N
1542455975.6,286047002.7,N
1542455995.4,286046998.7,N
